STARLINK-33825, 63505

Orbit data source: Space-Track

STARLINK-33825, 63505 is a payload satellite owned by SpaceX/Seattle (US) in LEO that was launched on Mon, 07 Apr 2025 UTC via an FALCON 9 launch vehicle from the Air Force Western Test Range (AFWTR). Payload-class satellites include a variety of spacecraft equipped with specific instruments for various scientific and technological missions. These include communications satellites like Starlink; space stations such as the ISS; scientific satellites like the Hubble; Earth observation satellites from companies like Planet Labs, Umbra, and HawkEye 360; GPS; miniature CubeSats for education and research; and military/defense satellites.

Loading next visibility...
Identifier
63505, 2025-071N
Orbit
LEO
Last TLE update
5 days ago
Origin
Manufacturer
SpaceX/Seattle
Mission
Operational spacecraft
Bus & Motor
STARLINK V2MO, Unknown motor
Mass
575 kg wet, ~530 kg dry
Launch date (UTC)
2025-04-07 (3 weeks ago)
Launch vehicle
FALCON 9
Launch site
Air Force Western Test Range (AFWTR)
Object type
Payload
Rocket body
Debris
Shape & HBR
Unknown
Radar Cross Section
Large (>1 m²)

Expand to show TLE details & history

TLE from 5 days ago
0 STARLINK-33825
1 63505U 25071N   25115.75002315 -.01398092  00000-0 -12789-1 0  9993
2 63505  53.1595 183.4063 0001114  64.5228  90.2399 15.70151760  4007
Epoch: 2025-04-25T18:00Z
Definitive object data (Epoch: 2025-04-25T18:00:02Z)
Latitude
19.98471°
Longitude
-136.32427°
Altitude
358.943 km
Speed
7.697 km/s
True Right ascension
23h 10m 44s
True Declination
19° 52' 05"
Sunlit
Object was in daylight at TLE epoch
Visualization TLE readout
Latitude
46.57709°
Longitude
88.63125°
Altitude
395.283 km
Speed
7.679 km/s
Apparent Right ascension
09h 25m 36s
Apparent Declination
12° 50' 54"
Sunlit
Object is in full shadow
Visualization observer readout
Local Sidereal Time
17:08:13
Azimuth
296.667° NW
Elevation
-10.43°
Doppler factor
1
Orbital elements
Apogee altitude
359.474 km
Perigee altitude
357.973 km
Semi-major axis
6,736.861 km
Eccentricity
0.0001114
Inclination
53.1595°
RAAN
183.4063°
Arg. of periapsis
64.5228°
True anomaly
90.25267°
Mean anomaly
90.2399°
Eccentric anomaly
90.24628°
Mean motion
3.92516 °/min
BSTAR
-0.012789
Orbital period
91.72 mins
Loading maneuver chart data...
Loading SW <> Apogee altitude chart data...
Loading historical data...
Loading historical data...
Loading historical data...
Loading historical data...
Loading historical data...
Loading historical data...
Loading historical data...

STARLINK-33825 Visibility forecast

Observer location: undefined°, undefined°

Span
Click to sort rows by Start time (UTC) header in descending order
Start Az.
Max El. time (UTC)
Max El. Az.
Max El.
End time (UTC)
End Az.
4 mins2025-04-30 11:17:21.592Z339.171° N2025-04-30 11:19:21.592Z21.578° NNE19.218°2025-04-30 11:21:21.592Z69.692° E
4 mins2025-04-30 12:54:21.592Z284.092° WNW2025-04-30 12:55:21.592Z250.962° W34.132°2025-04-30 12:58:21.592Z152.4° SSE
5 mins2025-05-01 05:30:21.592Z237.895° WSW2025-05-01 05:32:21.592Z349.236° N43.663°2025-05-01 05:35:21.592Z46.954° ENE
|